13P/Olbers (2024)

Japanese version
Home page
Updated on July 18, 2024

---------------------------------------------------------------------

* Profile

Recovery Date August 13, 2023
Magnitude 21.6 mag
Recoverer A. Hale (Las Cumbres Observatory)

* Pictures

* Orbital Elements

Epoch 2024 Mar. 31.0 TT = JDT 2460400.5
T 2024 June 30.04588 TT                                 Rudenko
q   1.1754754            (2000.0)            P               Q
n   0.01421040     Peri.   64.41580     -0.60854130     -0.37164107
a  16.8810160      Node    85.84749     +0.18557656     -0.92569783
e   0.9303670      Incl.   44.66490     +0.77151723     -0.07047298
P  69.4
>From 1402 observations 2023 Oct. 8-2024 June 18, mean residual 0".4.
     Nongravitational parameters A1 = +0.68, A2 = -0.7555.

* Finding Charts

* Magnitudes Graph

        m1 = 3.5 + 5 log d + 24.0 log r  [ ,0]  (             - 2024 June 30)
        m1 = 4.2 + 5 log d + 15.0 log r  [0, ]  (2024 June 30 -             )

---------------------------------------------------------------------

The orbital elements are published on M.P.E.C. 2024-M41.
The charts are made with StellaNavigator Ver.10 (AstroArts).
The magnitudes graphs are made with Comet for Windows.

---------------------------------------------------------------------

Copyright(C) Seiichi Yoshida (comet@aerith.net). All rights reserved.